Wind_Speed
34 37 41 45 48 52 58 64 68 71 72 72 73 73 73 73 72 71 71 72 73 73 72 72 71 70 69 69 68 67 66 64 63 62 62 62 62 62 61 61 61 60 59 58 58 58 59 59 60 61 62 62 62 63 63 64 65 66 68 69 70 70 71 71 70 70 69 69 69 69 69 69 68 68 67 66 66 65 65 64 64 64 64 65 65 66
33 36 40 42 45 49 55 61 66 69 70 71 72 72 72 73 72 71 71 72 73 73 73 72 71 69 68 68 68 68 67 66 64 63 63 62 61 61 60 61 62 62 60 59 58 59 59 60 61 62 62 62 62 62 62 62 63 64 65 66 67 69 69 69 69 69 68 68 68 68 68 68 67 67 66 65 64 64 64 63 63 64 64 65 65 66
31 35 39 42 43 46 51 58 64 67 69 70 70 71 71 72 72 71 71 71 72 74 74 73 71 69 67 68 69 70 69 68 66 65 64 63 62 62 61 62 63 63 63 62 61 61 60 61 62 63 63 63 62 62 62 62 62 62 63 64 65 66 68 68 68 68 68 68 68 68 68 67 66 65 64 64 63 63 63 63 63 64 64 65 65 65
29 33 38 41 43 45 48 54 60 65 67 68 69 70 70 71 71 71 71 71 72 73 74 73 71 69 67 68 69 71 71 70 69 67 66 64 63 63 63 62 61 61 62 63 63 62 62 62 64 64 64 64 63 62 62 62 62 62 62 63 64 65 66 67 67 67 67 68 68 67 67 66 65 64 63 63 62 62 62 63 63 64 64 64 65 65
27 31 35 39 42 44 47 52 57 62 65 67 68 69 69 70 71 72 71 71 71 72 73 73 71 70 68 69 71 72 73 72 71 70 68 66 64 63 63 62 60 60 60 60 60 61 62 63 65 65 65 64 63 63 63 63 63 63 63 63 64 65 65 65 66 66 67 68 68 67 66 65 64 63 63 62 62 62 62 63 63 63 64 64 64 64
26 28 32 35 39 42 46 49 54 59 63 65 67 68 69 71 72 72 71 70 70 71 72 73 72 71 70 71 72 73 74 74 74 73 71 69 67 65 63 62 60 59 58 58 59 61 63 65 66 66 66 65 64 64 64 64 64 64 64 65 65 65 65 64 64 65 66 67 67 67 66 65 64 63 62 62 62 62 62 62 63 63 64 64 64 64
26 28 30 33 36 40 43 47 52 56 60 63 66 68 69 72 73 72 71 70 70 70 72 73 72 72 72 72 73 75 75 76 76 75 73 72 70 67 65 63 61 60 59 60 62 64 66 67 68 67 66 66 66 66 65 65 64 64 65 66 66 66 65 64 63 64 65 66 66 66 65 64 63 62 62 62 61 62 62 62 63 63 63 63 63 63
27 29 31 33 35 37 41 46 50 55 59 62 65 67 70 72 73 73 71 70 70 70 71 72 73 73 73 74 75 76 77 77 76 75 74 72 71 69 67 65 63 62 63 64 66 68 69 69 69 68 68 68 67 67 66 66 65 65 66 67 67 66 65 64 63 63 64 64 64 64 63 63 62 62 61 61 61 61 61 62 62 62 63 62 62 61
28 30 32 34 35 37 39 44 49 54 58 62 64 67 70 72 73 73 72 71 71 71 72 72 73 74 75 76 76 77 77 77 76 75 73 72 70 69 67 66 65 65 66 67 69 70 71 71 70 70 69 69 69 68 67 67 67 67 68 68 68 67 66 64 64 63 63 63 62 62 62 62 61 61 61 61 61 61 61 61 62 62 62 61 61 61
28 30 32 35 37 38 39 44 49 54 58 62 65 68 70 72 74 75 74 73 73 73 74 74 75 75 76 77 78 78 78 77 76 75 73 71 69 68 66 66 66 66 67 69 70 71 71 71 71 71 71 71 70 69 69 69 69 69 69 69 68 67 67 66 65 64 63 63 62 61 61 61 60 60 60 60 60 60 61 61 61 61 61 61 61 60
28 30 32 35 38 40 41 44 49 55 60 64 67 68 70 73 75 76 77 76 76 76 76 76 76 77 78 78 79 79 79 78 77 75 74 72 70 68 67 66 66 67 68 69 70 71 71 72 72 72 72 72 71 71 70 70 70 70 70 69 69 68 68 67 66 65 64 63 62 61 61 60 60 60 59 59 60 60 60 61 61 61 61 61 60 60
28 30 32 35 39 41 43 45 49 55 61 66 68 69 71 73 75 77 78 79 78 78 77 77 77 78 79 79 79 80 79 78 78 76 74 73 71 69 67 67 67 68 69 70 70 71 72 72 73 73 73 72 72 71 71 70 70 70 70 69 69 69 69 68 67 66 65 64 63 62 61 60 60 60 59 59 59 60 60 61 61 61 61 61 60 60
29 30 32 35 39 42 45 46 49 56 63 68 70 70 71 73 75 77 79 80 80 79 79 78 78 78 79 79 80 79 79 78 78 76 75 73 72 70 69 69 69 69 70 71 72 72 72 73 73 74 73 73 72 71 71 70 70 69 69 69 70 70 69 69 68 67 66 65 64 63 62 61 60 60 60 60 60 60 60 61 61 61 61 61 60 60
30 31 32 34 38 42 46 47 50 56 63 69 71 71 71 73 75 77 78 80 80 80 80 79 79 79 79 79 79 79 78 78 77 76 75 74 73 72 71 71 71 72 72 72 73 73 73 73 74 74 73 72 72 71 70 70 69 69 69 70 70 70 70 70 69 68 67 66 65 63 62 61 61 60 60 60 60 60 61 61 60 60 60 60 60 60
31 32 33 34 37 41 46 48 50 55 62 68 71 72 72 73 75 76 78 79 80 80 80 80 80 80 80 80 79 79 78 78 77 76 76 75 75 74 73 73 73 74 74 74 74 74 74 75 75 74 74 73 72 71 70 70 70 70 70 70 71 71 71 71 70 69 68 67 65 64 63 62 61 61 61 60 60 61 60 60 60 60 60 60 60 60
33 34 35 36 37 40 45 49 51 54 59 65 70 73 73 74 76 77 79 80 80 80 80 80 81 81 81 81 80 80 79 78 78 77 77 76 76 76 76 76 76 76 77 76 76 77 77 76 76 75 74 73 72 72 71 71 71 71 71 71 72 72 72 71 71 70 68 67 66 64 63 63 62 61 61 61 61 60 60 60 60 60 60 60 60 60
33 35 36 37 38 40 44 48 51 53 56 62 68 72 75 76 77 78 79 80 80 80 80 80 81 81 81 81 81 80 80 79 79 78 78 78 78 79 79 79 80 80 80 80 80 80 79 78 77 75 74 73 72 72 72 72 72 72 72 72 72 72 72 72 71 70 69 67 66 64 64 63 62 61 61 61 60 60 60 60 60 60 60 60 60 60
33 35 37 39 40 41 44 47 51 53 54 58 63 69 74 76 77 78 80 81 81 81 81 81 81 81 81 81 81 81 81 80 80 80 80 80 80 81 81 82 82 83 83 83 83 82 80 79 77 75 74 73 72 72 72 72 72 73 72 73 73 73 72 72 71 70 68 67 65 64 63 62 62 61 61 60 60 60 60 60 60 60 60 60 61 61
33 35 37 39 41 43 44 47 50 53 54 56 59 65 70 74 76 78 79 81 82 82 82 81 81 82 82 82 82 82 82 81 81 81 81 81 82 82 83 83 83 84 84 83 83 81 79 77 76 74 73 73 73 73 73 73 72 73 73 73 73 73 72 71 70 69 67 66 65 63 63 62 61 61 61 61 61 61 61 61 61 61 61 61 61 62
34 35 37 39 41 44 45 47 50 52 54 56 57 61 66 71 74 77 79 80 82 83 83 83 82 82 82 82 82 82 82 82 82 81 81 82 82 82 83 82 82 82 82 82 81 79 78 76 75 74 73 73 73 73 73 73 73 73 73 73 72 72 72 70 69 68 66 65 64 63 62 62 61 61 61 61 61 62 62 62 62 62 62 62 63 64
34 36 38 39 41 44 46 48 50 52 54 56 57 59 63 68 72 75 78 80 81 82 83 83 83 83 83 83 83 83 83 82 82 82 82 81 81 82 82 81 81 81 80 80 79 77 76 75 74 74 74 74 75 74 74 73 73 73 73 72 72 71 70 69 68 67 65 64 63 63 63 62 62 62 62 63 63 63 63 63 63 63 64 64 65 66
33 36 38 40 41 44 46 49 51 53 54 56 57 58 61 64 69 73 77 79 81 82 83 83 84 84 84 84 84 84 84 83 83 82 82 81 81 81 81 80 80 79 79 78 78 77 76 75 75 75 76 76 76 76 75 74 74 73 73 72 71 70 69 68 67 66 65 65 64 64 64 64 64 64 64 65 65 65 65 65 66 66 66 67 68 69
29 33 37 40 42 44 46 48 51 53 55 57 58 59 60 62 66 70 74 78 80 82 83 84 84 85 85 85 85 85 85 84 84 83 82 81 81 81 81 80 79 79 79 79 79 78 77 77 77 78 78 78 78 77 75 74 74 73 72 71 71 70 69 68 67 66 66 65 65 65 66 66 66 67 67 68 68 68 69 69 69 69 70 71 71 72
26 30 34 38 41 44 45 47 50 53 55 57 59 60 60 61 64 67 71 74 78 80 82 83 84 85 85 86 86 86 86 86 85 84 83 82 82 82 81 80 80 80 81 82 81 81 80 80 80 80 80 79 78 77 75 75 74 73 72 72 71 70 69 69 68 67 67 67 67 67 67 68 69 69 70 71 71 72 72 72 72 72 72 73 73 73
24 26 30 34 39 43 45 47 49 52 54 57 59 60 61 62 63 65 67 70 74 77 80 82 84 85 86 87 87 87 87 87 86 85 84 84 83 83 82 81 80 81 82 83 84 83 83 83 83 82 81 80 78 77 75 75 74 74 73 73 72 71 71 70 69 69 68 68 68 69 69 70 70 71 72 73 73 73 73 73 73 73 72 72 72 72
25 26 28 31 35 39 43 47 49 51 53 56 58 60 62 63 63 64 66 68 71 73 77 80 83 85 87 87 88 88 88 88 88 87 86 86 85 84 83 82 81 81 82 83 84 85 85 84 84 83 82 80 78 77 76 75 75 75 75 75 74 74 73 72 71 71 70 70 70 70 71 71 71 72 72 73 73 73 72 72 72 71 71 71 71 71
27 27 28 29 32 35 40 44 48 51 53 55 57 59 61 63 64 65 65 67 69 71 73 76 80 83 85 87 88 89 89 89 89 89 89 88 87 87 86 84 83 82 82 82 83 84 85 85 85 84 83 81 80 79 78 77 77 77 77 77 77 76 75 75 74 74 73 73 73 73 73 73 73 73 73 73 73 72 72 72 71 71 71 71 71 71
30 30 30 30 31 33 36 40 45 49 52 54 56 58 60 62 64 65 66 67 69 70 71 74 77 79 82 86 88 90 90 90 90 90 90 90 89 89 89 87 86 84 83 82 82 83 83 84 85 85 84 84 83 82 81 81 80 80 80 79 79 78 78 77 77 76 76 76 75 75 75 75 75 75 75 74 74 73 73 73 72 72 72 72 72 72
33 33 32 32 32 33 34 37 41 45 50 53 56 58 59 61 63 65 66 68 68 69 71 73 74 77 79 82 85 88 90 92 92 92 92 92 91 91 91 90 88 87 85 84 83 82 82 82 83 83 84 84 84 84 84 84 83 83 82 82 81 80 80 79 79 78 78 78 78 78 78 78 77 77 77 76 75 75 75 74 74 74 74 73 73 73
37 36 35 35 35 34 35 36 38 42 46 50 54 57 59 61 63 64 65 66 68 69 71 72 73 75 77 79 81 84 88 91 93 94 94 94 94 94 93 92 90 90 88 87 85 83 82 82 82 81 81 82 83 84 84 84 84 84 83 83 82 82 81 81 80 80 79 79 79 79 79 79 79 79 78 77 77 76 76 76 75 75 75 75 75 75
40 39 38 38 37 37 37 37 38 39 42 46 51 55 58 61 62 64 65 66 67 69 70 71 73 74 75 77 79 82 84 87 90 93 94 96 97 97 96 95 94 93 92 90 88 86 85 84 83 82 81 80 80 81 81 81 82 82 82 82 82 82 81 81 81 80 80 80 80 80 80 80 79 79 79 78 78 77 77 77 76 76 76 76 76 77
45 43 42 40 40 39 39 39 39 39 41 43 46 51 55 59 61 63 65 66 67 68 69 71 72 73 74 76 78 80 81 84 86 88 91 94 97 98 99 98 98 97 95 94 92 90 89 88 87 85 84 82 81 80 79 78 78 78 79 79 79 80 80 80 80 80 80 79 79 79 80 79 79 79 79 78 78 78 77 77 77 77 77 77 78 78
48 47 46 44 43 42 42 41 41 41 41 42 44 47 50 55 59 62 64 66 67 68 69 70 71 72 73 75 76 78 80 81 83 84 87 90 93 96 98 100 101 100 99 98 96 95 93 92 91 89 88 86 84 82 81 79 78 77 76 76 77 78 78 79 79 79 79 79 79 79 79 79 79 79 78 78 78 78 78 78 78 78 78 78 79 80
51 51 49 48 46 45 44 44 43 43 43 43 44 45 47 50 54 58 62 65 67 68 69 70 71 72 73 74 75 77 78 79 81 82 83 86 89 92 95 97 99 101 101 101 100 99 98 96 95 93 91 90 88 87 85 83 81 80 79 78 77 78 78 79 79 79 79 79 79 79 79 79 79 79 79 79 79 79 79 79 79 79 79 80 80 81
54 54 53 52 50 49 47 46 45 45 45 45 45 45 46 47 50 53 57 61 64 67 69 70 71 72 73 74 75 76 77 78 79 80 82 84 86 88 90 93 95 97 99 100 101 101 101 100 98 97 95 93 92 91 89 87 86 84 83 82 81 81 81 81 81 81 81 80 80 80 80 80 79 79 79 79 79 80 80 80 80 80 81 81 82 82
57 56 56 55 54 52 50 49 48 47 47 47 47 47 47 47 48 50 52 56 60 64 67 69 71 72 73 74 75 76 76 77 78 79 81 82 84 86 88 89 90 92 94 96 98 99 100 100 100 99 98 96 95 93 92 91 90 88 87 86 86 85 85 85 84 83 83 82 82 82 81 81 81 80 81 80 81 81 81 81 81 82 82 82 83 83
59 59 59 58 57 56 54 52 50 49 48 48 48 49 48 48 48 49 50 52 55 59 62 66 69 71 72 73 74 75 76 77 77 79 80 82 83 85 87 88 88 89 90 91 93 95 96 97 98 98 98 97 96 95 94 93 91 90 89 89 89 88 88 88 87 86 86 85 84 84 83 83 82 82 82 82 82 82 82 82 82 83 83 83 83 82
60 61 61 60 59 58 57 55 53 51 50 49 49 50 50 50 49 49 49 50 51 54 57 61 64 68 70 72 73 74 75 76 77 78 80 81 83 85 86 87 87 87 87 88 89 91 92 93 94 95 95 95 95 95 94 93 92 91 90 90 90 90 89 89 89 88 87 86 86 85 84 84 83 83 82 82 82 82 82 83 83 83 83 82 82 81
62 62 62 62 61 61 60 58 56 54 52 51 50 50 50 51 51 50 50 50 50 51 52 55 59 62 66 69 71 73 74 75 77 78 79 81 83 84 85 86 86 86 86 86 87 88 88 89 90 90 91 91 92 92 92 91 90 90 90 89 89 89 88 88 88 87 86 86 85 85 84 84 83 82 82 82 81 81 82 82 82 82 81 80 80 79
63 63 63 63 63 62 62 60 58 56 54 53 51 51 51 51 51 52 51 51 50 50 50 51 53 56 60 64 67 70 72 74 75 77 78 80 82 84 85 86 86 86 85 85 86 86 86 86 87 87 87 87 87 87 87 87 87 86 86 86 85 85 85 85 84 84 84 83 83 82 82 81 81 80 80 80 80 80 80 80 80 79 79 78 77 76
64 64 64 64 64 63 63 62 60 58 57 55 53 52 51 51 51 52 52 52 51 51 50 50 50 52 55 58 62 65 68 71 73 75 76 78 80 82 83 84 85 85 85 85 85 85 85 85 85 84 84 83 83 83 82 82 82 82 82 82 81 82 82 81 81 80 80 80 79 79 78 78 77 77 77 77 77 77 77 77 76 76 75 75 74 73
64 65 65 65 64 64 64 63 62 60 59 57 55 53 52 51 51 51 52 52 52 52 51 50 50 50 51 53 56 60 63 67 69 72 74 76 78 79 81 82 83 83 84 85 86 86 85 85 84 84 83 82 82 81 81 80 80 80 79 79 79 79 78 78 78 77 76 76 76 75 74 74 73 73 74 74 74 74 74 74 73 73 72 72 72 71
64 64 65 65 65 65 65 64 64 62 61 59 57 55 52 51 50 51 51 52 52 52 52 51 50 50 50 51 52 55 58 62 65 68 70 73 74 76 77 78 79 81 82 84 85 85 85 84 84 83 83 82 82 81 81 80 80 79 79 79 78 78 77 77 76 76 75 74 73 72 71 71 71 71 71 72 72 72 71 71 71 71 70 70 70 70
63 64 64 65 65 65 65 65 65 64 62 61 59 56 53 51 50 50 51 51 52 52 52 52 51 50 50 50 50 52 54 57 60 64 66 69 71 72 73 75 76 77 79 81 82 83 82 82 82 82 82 82 82 82 82 81 81 80 80 79 79 78 77 77 76 75 74 73 72 72 71 71 71 71 71 71 70 70 70 70 70 70 70 70 70 70
63 63 64 64 65 66 66 66 66 65 63 62 60 57 54 52 51 50 50 50 51 52 52 52 52 51 51 50 50 50 52 54 57 60 62 65 67 68 70 71 73 74 76 77 77 77 77 78 78 79 79 80 81 81 82 82 81 81 81 80 79 78 78 77 76 75 74 73 73 72 72 72 72 71 71 70 70 70 70 70 70 70 70 70 70 71
62 62 63 64 65 65 66 66 66 65 64 62 60 57 55 53 51 50 50 50 50 51 52 52 52 52 52 51 50 50 51 52 54 56 59 61 63 65 67 69 70 72 72 72 72 71 70 71 72 73 75 76 77 78 79 80 80 80 80 79 78 78 77 76 76 75 74 73 73 73 73 73 72 71 71 70 70 70 70 70 70 70 70 70 70 71
61 62 62 63 64 65 66 66 66 66 64 62 60 57 55 53 51 50 50 49 50 50 51 52 52 52 52 52 51 51 51 51 52 53 55 58 60 62 65 66 68 69 68 68 66 65 65 65 66 67 69 70 72 73 74 75 75 76 76 76 76 75 75 74 74 74 73 73 73 73 73 72 71 71 71 71 71 71 71 71 70 70 70 70 70 69
60 61 61 62 63 65 65 66 66 65 64 62 59 57 55 53 51 50 49 49 49 50 50 51 52 52 52 52 51 51 51 51 51 51 53 55 57 60 62 64 65 65 64 63 62 61 61 61 62 63 64 65 66 68 68 69 70 70 70 70 70 70 71 71 71 71 71 71 71 71 71 71 71 71 71 71 70 70 70 70 70 69 69 68 68 67
58 59 61 62 63 64 65 66 65 65 63 61 58 56 54 52 51 50 49 49 49 49 50 51 52 52 52 52 52 52 51 51 50 50 51 52 54 57 59 60 60 60 59 59 59 59 59 60 61 61 62 62 63 63 64 64 64 64 64 64 65 65 66 66 67 67 68 68 69 69 69 70 70 70 69 69 69 69 69 68 68 67 66 66 65 64
57 58 60 61 63 64 65 65 65 64 62 60 57 55 53 52 51 50 49 49 49 49 50 50 51 52 52 52 52 52 52 51 50 50 50 51 52 54 55 56 56 56 56 56 57 57 58 59 60 60 61 61 61 61 61 61 61 61 60 60 61 61 62 63 63 64 65 65 66 66 67 67 67 67 67 67 67 66 66 65 65 64 63 63 62 61
56 57 59 61 63 64 64 64 63 62 60 58 56 54 52 51 50 49 49 49 49 49 49 50 51 51 52 52 52 52 52 52 51 50 50 50 51 51 52 52 52 53 54 55 56 57 58 58 59 59 60 60 60 60 60 60 59 59 58 58 59 59 60 60 61 62 62 63 63 63 64 64 64 64 63 63 63 63 63 62 62 61 60 60 59 58
Wind_Direction
186 190 192 195 198 200 201 201 201 201 201 201 201 200 199 197 196 196 197 199 200 200 201 203 204 206 207 208 208 208 209 210 213 216 219 222 224 226 229 233 235 237 238 238 239 240 240 242 243 244 246 247 249 251 253 255 256 257 257 258 258 258 258 259 259 260 261 261 262 263 263 264 265 266 267 268 270 271 273 274 276 277 278 278 279 280
183 187 190 192 195 197 199 200 200 201 201 201 200 200 198 197 195 195 197 199 200 201 202 203 205 207 208 208 208 208 208 210 213 216 219 221 223 225 227 230 232 234 236 237 238 239 240 241 242 243 245 246 247 249 252 254 255 257 258 259 259 259 259 259 259 260 261 261 262 263 263 264 265 266 267 269 271 272 273 275 276 276 277 278 279 280
182 185 188 191 192 195 197 198 199 200 200 200 200 199 198 196 195 195 197 199 201 202 203 204 206 207 208 209 209 208 209 210 213 216 219 221 223 225 227 229 231 232 234 236 237 239 240 241 242 243 244 245 246 248 250 252 254 256 257 259 260 260 260 259 259 260 260 261 262 263 264 264 266 267 268 270 271 273 274 275 275 276 277 278 279 280
181 184 187 190 191 192 194 196 198 199 199 199 199 198 197 196 194 194 196 199 200 202 203 204 206 208 209 210 210 210 210 211 213 216 219 221 223 225 227 229 231 232 233 235 237 239 240 241 242 243 243 244 245 246 248 250 252 254 256 258 260 261 261 260 259 259 260 261 262 263 264 265 267 268 269 270 272 273 274 274 275 276 277 278 279 280
183 184 186 189 190 191 192 194 195 197 198 198 198 197 196 195 194 194 197 199 200 202 203 205 206 208 210 211 211 211 211 212 214 215 217 219 222 224 227 229 230 232 233 234 236 238 239 240 241 242 243 243 244 245 247 249 251 253 255 258 260 261 261 261 260 259 260 261 262 263 264 266 267 269 269 271 272 272 273 274 275 276 278 279 280 281
187 187 186 188 190 191 192 192 193 195 196 196 197 196 195 194 194 195 197 198 200 202 203 205 207 208 210 210 211 211 212 213 214 215 216 218 220 222 225 227 229 231 232 234 235 237 238 239 240 241 242 242 243 245 246 248 249 252 254 257 259 261 261 261 261 260 260 261 262 263 265 266 268 269 270 271 271 272 273 274 276 277 278 280 281 283
192 192 189 188 189 190 191 191 191 192 193 194 195 195 195 194 194 195 197 199 200 202 203 205 207 208 209 210 210 211 212 213 214 215 216 218 220 222 224 226 228 229 231 232 234 235 237 238 239 240 241 242 243 244 245 247 249 251 253 256 258 260 261 261 261 261 261 261 262 264 265 266 268 269 270 271 272 273 274 275 276 278 279 281 282 284
196 196 194 191 189 189 190 191 190 191 191 192 193 193 194 194 195 196 198 199 201 202 203 205 207 208 209 209 210 211 213 214 215 216 218 219 221 223 224 226 227 229 230 232 233 235 236 238 239 240 241 242 242 243 245 246 248 250 252 255 257 258 260 261 261 261 261 262 263 264 266 267 268 269 270 271 272 273 274 276 277 279 280 282 283 284
197 197 197 195 192 190 190 190 190 190 190 191 191 193 194 195 196 197 199 200 202 203 205 206 207 208 209 209 211 212 213 214 215 217 218 220 222 223 225 226 227 229 230 232 233 235 237 238 239 240 241 242 242 243 244 245 246 248 251 253 255 257 259 260 261 261 262 263 264 265 266 267 268 269 270 271 272 274 275 276 278 279 281 282 283 284
199 198 198 197 195 192 191 190 190 190 189 190 191 193 194 196 197 198 199 201 203 204 206 207 208 209 209 210 212 213 214 215 216 217 218 220 221 223 224 226 227 229 230 232 234 236 237 238 239 240 241 241 242 242 243 244 245 247 249 252 254 256 258 259 260 261 262 264 265 266 267 268 269 270 271 272 273 274 275 277 278 279 281 282 283 284
202 200 198 197 197 195 193 191 190 190 190 190 191 193 195 197 198 199 200 202 203 205 206 207 208 209 210 211 212 214 214 215 216 217 218 219 220 222 223 225 226 228 230 232 234 236 237 238 239 240 240 241 241 242 243 244 245 247 249 251 254 256 257 259 260 261 262 264 265 267 268 269 269 271 271 272 273 275 276 277 278 279 281 281 282 284
204 202 200 198 197 197 195 193 192 191 191 191 191 193 195 197 199 200 201 202 204 205 206 208 208 209 210 212 213 214 215 216 216 217 218 218 220 221 222 224 226 228 230 232 234 236 237 238 239 239 240 240 241 241 242 244 245 247 249 251 254 256 257 258 260 261 262 264 265 266 267 269 270 271 272 273 274 275 276 277 278 279 280 281 282 283
206 205 203 201 199 198 196 195 194 193 193 192 192 193 195 197 199 200 202 203 205 206 207 207 209 210 211 212 214 215 215 216 217 217 218 218 219 220 222 223 225 227 229 231 233 234 236 237 238 239 239 240 240 241 243 244 245 247 249 252 254 256 257 258 259 261 262 263 265 266 267 268 270 271 272 273 274 275 276 277 278 279 280 281 282 283
207 207 206 204 201 199 198 197 196 195 195 194 194 195 196 197 199 200 202 204 205 206 207 208 209 210 212 213 214 215 216 216 217 218 218 219 220 220 221 223 224 226 228 230 232 234 235 236 237 238 238 239 240 241 243 244 246 248 250 252 254 256 257 258 259 260 261 263 264 265 267 268 269 271 272 273 274 275 276 276 277 278 279 280 281 282
207 208 208 206 204 202 200 199 198 198 197 197 197 197 198 198 199 200 202 203 205 207 208 209 210 211 212 213 214 215 216 216 217 218 218 219 220 220 221 222 224 225 227 229 231 233 234 235 236 237 238 239 240 242 243 245 247 248 250 252 254 255 257 258 259 260 261 262 264 265 266 268 269 270 271 272 273 274 275 276 277 278 279 280 281 282
208 208 209 208 207 204 202 201 200 200 199 200 200 200 200 200 201 202 203 204 205 207 208 209 211 212 213 214 214 215 216 216 217 218 218 219 220 220 221 222 223 224 226 228 230 231 233 235 236 237 239 240 241 243 244 246 247 249 250 252 253 255 256 257 259 260 261 262 264 265 266 267 269 270 271 272 273 274 275 275 276 277 278 279 280 281
210 209 209 209 208 207 205 204 203 203 202 202 203 203 203 203 203 204 204 205 206 207 208 209 211 212 213 214 215 215 216 216 217 218 219 219 220 221 221 222 223 224 226 228 229 231 233 235 236 238 240 241 243 244 245 246 247 249 250 252 253 255 256 257 259 260 261 262 264 265 266 267 268 269 270 271 272 273 274 275 276 276 277 278 279 281
212 211 210 210 209 209 207 206 206 205 205 205 205 206 207 206 206 206 206 206 207 207 208 209 211 212 213 214 215 216 216 217 218 219 219 220 221 221 222 223 224 225 227 229 230 232 234 236 238 240 241 242 244 245 245 246 247 249 250 251 253 254 256 257 259 260 261 262 264 265 266 266 267 268 269 270 271 272 273 274 275 275 277 278 279 280
215 213 212 211 210 210 209 208 208 208 208 207 207 208 209 209 209 209 208 208 208 208 209 210 211 212 213 214 215 216 216 217 218 219 220 221 222 223 224 225 226 227 229 231 233 234 236 238 239 241 242 243 244 244 245 246 247 249 250 252 253 254 256 257 258 260 261 262 263 264 265 266 266 267 268 269 270 271 272 273 274 275 276 277 278 280
217 215 214 213 212 211 210 210 210 210 210 210 209 210 211 212 212 212 211 211 211 210 210 210 211 212 213 214 215 216 217 218 219 220 221 222 224 225 225 227 228 229 231 233 235 236 237 239 240 241 242 242 243 244 245 246 247 248 250 251 253 254 256 257 258 259 260 261 262 263 264 265 266 267 267 268 269 270 271 272 274 275 276 277 278 280
220 218 217 215 214 212 212 211 211 211 212 212 212 212 212 213 214 214 214 214 213 213 212 212 212 212 213 214 215 216 217 218 219 221 222 223 225 226 227 228 229 231 232 234 235 236 237 238 239 240 241 242 242 243 244 245 247 248 249 251 252 254 255 256 257 258 259 260 261 262 263 264 265 266 267 268 269 270 271 272 274 275 276 278 279 280
225 222 219 218 217 215 213 212 212 212 213 214 214 214 214 215 216 216 217 217 216 216 215 215 214 214 214 214 215 216 217 218 219 220 222 223 225 226 227 228 229 231 232 233 234 235 236 237 238 239 240 241 241 242 243 244 246 247 249 250 251 253 254 255 256 257 258 259 261 262 263 264 265 266 267 268 269 270 272 273 274 276 277 278 279 281
230 226 223 221 220 218 217 215 214 213 213 214 215 216 216 216 217 218 218 219 219 218 218 218 217 217 216 216 216 217 217 218 219 220 221 223 224 226 227 228 229 230 231 232 233 234 235 236 237 238 239 239 240 241 242 244 245 247 248 249 251 252 253 254 255 257 258 259 261 262 263 264 265 266 267 268 270 271 272 274 275 277 278 279 281 282
236 231 228 225 223 221 220 218 217 215 215 215 215 216 217 218 219 219 220 220 221 221 221 220 220 220 219 219 218 218 219 219 219 220 221 223 224 225 227 228 229 230 231 232 232 233 234 235 236 237 238 239 240 241 242 244 245 246 248 249 250 251 253 254 255 257 259 260 262 263 264 266 267 268 269 270 271 273 274 275 277 278 280 281 282 284
240 236 232 229 226 224 222 221 220 219 217 216 216 217 218 219 220 221 221 222 222 223 222 222 222 222 221 221 220 220 220 220 221 221 222 223 224 225 227 228 229 231 232 232 233 233 234 235 236 237 238 239 240 241 242 244 245 246 248 249 250 251 253 254 256 257 259 261 263 264 266 267 268 270 271 272 273 275 276 277 279 280 281 283 284 285
242 239 236 233 230 227 225 224 223 222 221 219 218 218 218 219 220 221 222 223 224 224 224 224 224 224 223 223 223 222 222 222 222 222 223 223 225 226 227 228 230 232 233 234 235 235 235 236 237 238 239 240 241 242 243 244 246 247 248 249 250 252 253 255 256 258 259 261 263 264 266 267 269 270 272 273 274 276 277 278 279 280 281 283 284 285
242 241 239 236 234 231 228 226 225 224 223 222 221 220 220 220 220 221 222 223 224 225 225 225 225 226 225 225 225 224 224 224 224 224 224 225 225 226 227 229 230 232 234 236 237 237 238 238 238 239 240 241 241 242 243 245 246 248 249 250 251 253 254 255 257 258 260 261 263 264 266 267 268 270 271 273 274 275 277 278 278 279 280 281 282 283
244 242 240 238 236 234 232 229 227 226 225 224 224 223 222 222 221 222 222 223 224 225 226 226 227 227 227 227 227 226 226 226 225 225 225 226 226 227 228 229 231 232 234 236 238 239 240 241 241 241 242 242 243 243 245 246 247 248 250 251 253 254 255 256 257 259 260 261 263 264 265 266 268 269 270 271 273 274 275 276 277 278 279 280 281 282
246 243 241 240 238 236 234 232 230 228 227 226 225 225 224 224 224 223 223 223 224 225 226 227 227 228 228 228 228 228 228 227 227 227 227 227 227 228 229 230 231 232 234 236 238 240 241 242 243 244 244 244 245 245 246 247 248 249 251 252 253 255 256 257 258 259 260 261 263 264 265 266 267 268 270 271 272 273 274 275 276 277 278 279 280 281
250 246 243 241 239 238 236 235 233 231 229 228 227 226 226 226 226 226 225 225 225 225 226 227 228 228 229 229 229 229 229 229 229 229 229 229 229 229 230 231 232 233 234 235 237 239 241 242 243 244 245 246 246 247 247 248 249 250 252 253 254 255 256 258 259 260 261 262 263 264 265 266 267 268 269 270 271 272 273 274 275 276 278 279 280 281
254 250 247 244 241 239 238 237 235 234 232 230 229 228 227 227 227 228 227 227 227 227 227 227 228 229 229 229 229 230 230 230 230 230 230 230 231 231 231 232 233 233 234 235 237 239 240 241 242 243 244 245 246 247 248 249 250 251 252 253 255 256 257 258 259 260 261 262 263 264 265 266 267 268 269 270 271 272 273 274 275 276 277 278 279 281
256 254 251 247 244 241 239 238 237 236 235 233 232 230 229 229 228 229 229 229 229 229 229 229 229 229 229 230 230 230 231 231 230 230 231 231 232 232 233 233 233 234 235 236 237 238 240 241 242 242 243 244 245 246 247 249 250 251 252 254 255 256 257 258 259 260 261 262 263 264 265 266 267 268 269 270 271 272 273 274 275 276 277 278 279 280
256 256 254 251 248 244 241 240 238 237 236 235 234 233 232 230 230 229 229 230 230 230 231 231 230 230 230 230 231 231 231 231 231 231 232 232 233 233 233 234 234 234 235 236 237 238 239 240 241 242 242 243 244 244 246 247 248 250 252 253 254 256 257 258 259 260 261 262 263 264 265 266 267 268 269 270 271 272 273 274 275 276 277 278 279 280
255 256 255 254 252 248 245 242 240 239 238 237 236 235 234 233 232 231 230 230 230 231 231 232 232 232 232 232 232 232 232 232 232 232 232 233 233 234 234 234 235 235 235 236 237 237 238 240 241 242 242 243 243 244 245 246 247 249 250 252 253 255 256 257 258 259 260 261 262 264 265 266 267 268 269 270 270 271 272 273 274 275 276 277 278 279
254 254 255 255 254 252 249 245 242 240 239 238 238 237 236 235 234 233 232 232 231 231 231 232 232 233 233 233 233 233 233 233 233 233 233 234 234 235 235 236 236 236 236 236 237 238 239 239 240 241 242 243 244 244 245 246 247 248 250 251 252 254 255 257 258 259 260 261 262 263 264 265 266 267 268 269 270 271 272 273 274 275 276 277 278 279
252 253 254 254 254 253 252 249 246 243 240 239 238 238 238 237 236 236 235 233 233 232 232 232 232 233 233 234 234 234 234 234 234 234 234 234 235 236 236 237 237 237 237 237 238 238 239 240 241 241 242 243 244 245 246 247 248 249 250 251 252 253 255 256 257 258 260 261 262 263 264 265 266 267 268 268 269 270 271 272 273 274 275 276 277 278
251 252 252 253 254 254 253 252 249 246 243 241 239 238 238 238 238 237 237 236 235 234 233 233 233 233 233 233 234 234 235 235 235 234 234 235 235 236 237 237 238 238 238 239 239 239 240 241 241 242 243 244 245 246 246 247 248 249 250 251 252 253 254 256 257 258 259 260 261 262 264 264 265 266 267 268 269 270 271 271 272 273 274 275 277 278
251 251 252 252 253 254 254 253 252 249 246 243 241 239 238 238 238 238 238 238 237 236 235 235 234 234 234 234 234 234 234 235 235 235 235 235 235 236 237 237 238 239 239 240 240 241 241 242 242 243 243 244 245 246 247 248 249 250 250 251 252 253 254 255 256 257 259 260 261 262 263 264 265 266 266 267 268 269 270 271 272 273 274 275 276 278
251 251 251 252 252 253 253 254 253 252 249 246 243 240 239 238 238 239 239 239 239 238 237 237 236 235 235 234 234 234 234 234 235 235 235 236 236 236 237 237 238 239 239 240 241 241 242 243 243 244 244 245 246 246 247 248 249 250 251 251 252 253 254 255 256 257 258 259 260 261 262 263 264 265 266 267 268 269 270 271 272 273 274 275 276 278
251 251 251 251 252 252 253 253 253 253 251 249 246 243 240 238 238 238 239 239 240 240 239 239 238 237 236 235 235 235 234 234 234 235 235 236 236 237 237 238 238 239 239 240 241 241 242 243 244 244 245 246 246 247 248 248 249 250 251 251 252 253 254 255 256 257 257 258 260 261 262 263 264 265 266 267 268 269 270 271 272 273 274 275 277 278
251 251 251 251 252 252 252 253 253 253 253 251 249 246 243 240 238 237 238 238 239 240 240 240 239 238 238 237 236 235 235 235 235 235 235 235 236 237 238 238 239 239 240 240 241 241 242 243 244 245 245 246 247 248 248 249 250 250 251 252 252 253 254 255 256 257 258 259 260 261 262 263 265 266 267 267 268 269 270 271 272 273 274 275 276 278
251 251 251 251 251 252 252 252 253 253 253 252 251 248 245 242 239 237 237 237 238 239 240 240 240 240 239 238 237 236 236 235 235 235 235 235 236 236 237 238 239 240 240 241 241 242 242 243 244 245 246 247 248 248 249 250 251 251 252 252 253 254 254 255 256 257 258 259 260 262 263 264 265 266 266 267 268 269 270 271 272 273 274 275 276 277
251 251 251 251 251 252 252 252 253 253 253 253 252 250 247 244 241 238 237 237 237 238 239 240 240 240 240 240 239 238 237 236 235 235 235 235 235 236 237 238 239 239 240 241 241 242 243 243 244 245 246 247 248 249 249 250 251 252 252 253 253 254 255 255 256 257 258 259 260 261 262 263 264 264 265 266 267 268 269 271 271 272 274 275 276 277
251 251 251 251 251 251 252 252 252 252 253 253 252 251 248 246 242 240 237 236 236 237 237 238 239 240 241 241 240 239 238 237 236 235 235 235 235 236 236 237 238 239 239 240 241 242 243 244 244 245 246 247 248 248 249 250 251 251 252 252 253 253 254 255 256 257 257 258 259 260 261 261 262 263 264 265 266 267 268 270 271 272 273 274 275 276
252 251 251 251 251 251 251 251 252 252 252 252 252 251 249 247 244 241 238 236 235 235 236 237 238 239 240 241 241 240 240 239 237 236 236 235 235 235 236 236 237 238 238 239 240 241 242 243 244 245 246 246 247 248 248 249 250 251 251 252 253 253 254 255 255 256 257 257 258 259 259 260 261 262 263 264 265 266 267 268 270 271 272 273 275 276
253 252 251 250 250 250 250 251 251 252 252 252 252 251 249 247 244 242 239 237 235 235 235 236 236 237 238 240 240 241 241 240 239 238 237 236 235 235 235 236 236 237 238 239 239 240 241 242 243 244 245 245 246 247 247 248 249 250 250 251 252 253 253 254 254 255 255 256 257 257 258 259 260 261 262 263 264 265 266 268 269 270 272 273 275 276
253 252 251 251 250 250 250 250 251 251 251 251 251 250 249 247 244 242 239 237 235 234 234 234 235 236 237 239 240 240 241 241 240 239 238 237 236 235 235 236 236 237 238 239 239 239 239 240 240 241 242 243 244 245 246 246 247 248 249 250 251 252 252 253 253 253 254 254 255 256 257 258 258 259 260 262 263 264 266 267 268 270 271 273 275 276
253 252 251 251 250 249 249 250 250 250 251 251 250 249 248 246 244 242 240 237 235 234 234 233 234 235 236 237 238 239 240 241 241 240 239 237 236 236 236 236 237 238 238 239 239 238 238 238 239 239 240 241 242 243 244 245 246 247 248 249 249 250 250 251 251 252 252 253 253 254 255 256 257 258 259 261 262 264 265 267 268 270 271 273 275 276
252 251 250 250 250 249 249 249 249 250 250 250 249 248 247 245 243 241 239 237 235 234 233 233 233 233 234 235 237 238 239 240 241 241 240 238 237 237 237 237 238 238 238 238 238 238 238 238 238 238 238 239 240 241 242 243 244 244 245 246 247 248 248 249 249 250 251 251 252 253 254 255 257 258 259 260 262 263 265 266 268 270 271 273 275 276
251 250 249 249 249 249 249 249 249 249 249 249 248 247 246 244 242 240 239 237 235 234 233 232 232 233 233 234 235 237 238 239 240 240 240 239 238 238 238 238 238 238 238 238 238 238 237 237 237 237 238 238 239 239 240 241 242 242 243 244 245 246 246 247 248 249 250 251 252 253 254 255 257 258 259 260 262 263 265 266 268 270 271 273 275 276
249 248 247 247 247 248 248 248 249 249 248 248 247 246 245 243 241 240 238 236 235 234 233 232 232 232 232 233 234 235 237 238 239 240 240 239 239 239 239 238 237 236 236 237 237 238 237 237 237 237 237 237 237 238 239 240 240 241 242 242 243 244 245 246 247 248 249 251 252 253 255 256 257 258 260 261 262 263 265 266 268 270 271 273 274 276
Height
10485 10488 10492 10496 10500 10504 10509 10513 10518 10522 10526 10531 10536 10541 10546 10552 10558 10563 10568 10572 10576 10579 10582 10584 10586 10590 10595 10601 10606 10611 10616 10618 10619 10619 10619 10621 10623 10621 10619 10615 10614 10616 10620 10624 10626 10626 10627 10626 10624 10624 10625 10624 10624 10624 10625 10626 10626 10627 10628 10628 10629 10631 10632 10634 10635 10636 10637 10638 10639 10639 10640 10641 10642 10643 10644 10644 10645 10646 10646 10646 10645 10644 10644 10643 10641 10641
10485 10489 10493 10496 10500 10504 10508 10513 10517 10521 10526 10531 10535 10540 10546 10551 10556 10561 10566 10570 10574 10577 10579 10582 10585 10590 10596 10601 10604 10606 10609 10611 10612 10613 10614 10614 10615 10614 10612 10610 10611 10615 10619 10621 10622 10623 10623 10623 10621 10621 10621 10621 10621 10622 10623 10623 10623 10624 10624 10624 10626 10627 10628 10629 10631 10633 10633 10634 10635 10635 10636 10637 10638 10639 10641 10642 10643 10643 10643 10642 10641 10641 10639 10639 10638 10637
10487 10489 10493 10496 10499 10503 10508 10511 10516 10521 10525 10530 10535 10540 10545 10550 10555 10560 10564 10569 10572 10575 10578 10581 10585 10590 10596 10599 10602 10603 10604 10604 10606 10607 10608 10608 10608 10607 10606 10607 10609 10613 10617 10619 10619 10619 10620 10619 10618 10616 10616 10616 10618 10619 10620 10620 10620 10621 10621 10621 10622 10623 10624 10626 10628 10629 10630 10631 10631 10631 10632 10634 10635 10637 10638 10639 10639 10639 10639 10638 10638 10637 10636 10635 10634 10634
10489 10491 10493 10496 10500 10503 10506 10511 10515 10519 10524 10529 10534 10539 10544 10549 10554 10558 10562 10566 10569 10573 10576 10579 10583 10588 10593 10597 10599 10600 10601 10600 10600 10601 10601 10601 10601 10601 10602 10604 10607 10611 10614 10615 10615 10616 10616 10616 10614 10612 10611 10613 10615 10616 10617 10617 10618 10618 10618 10618 10618 10618 10619 10621 10624 10625 10626 10626 10627 10628 10629 10631 10633 10634 10635 10636 10636 10636 10635 10634 10634 10633 10633 10632 10631 10631
10492 10493 10495 10498 10500 10503 10506 10510 10514 10519 10524 10529 10534 10539 10544 10548 10552 10556 10560 10564 10566 10569 10573 10577 10581 10584 10588 10592 10594 10595 10597 10597 10596 10595 10595 10595 10596 10597 10599 10603 10606 10608 10610 10611 10612 10613 10612 10611 10609 10607 10608 10609 10612 10613 10614 10614 10614 10614 10614 10614 10614 10614 10616 10618 10619 10621 10623 10623 10623 10624 10626 10628 10629 10631 10632 10633 10632 10632 10631 10630 10629 10629 10629 10628 10628 10628
10494 10496 10498 10501 10503 10504 10507 10511 10514 10519 10524 10529 10534 10538 10543 10547 10551 10554 10558 10562 10564 10567 10571 10574 10577 10579 10582 10585 10588 10589 10590 10591 10591 10590 10590 10591 10592 10594 10597 10601 10604 10606 10606 10607 10608 10608 10606 10604 10603 10603 10604 10607 10609 10610 10611 10611 10611 10611 10611 10611 10611 10611 10611 10613 10615 10617 10618 10619 10621 10622 10624 10625 10626 10628 10628 10629 10628 10628 10627 10626 10626 10626 10625 10624 10624 10624
10495 10497 10499 10502 10505 10508 10510 10512 10516 10520 10524 10529 10533 10537 10541 10545 10549 10553 10556 10559 10562 10564 10568 10570 10573 10574 10576 10578 10579 10581 10581 10583 10584 10586 10587 10588 10590 10593 10596 10599 10601 10603 10603 10603 10603 10602 10600 10599 10599 10600 10602 10604 10606 10606 10607 10608 10608 10608 10608 10607 10607 10607 10608 10609 10611 10613 10614 10616 10618 10619 10621 10622 10623 10624 10624 10625 10624 10624 10623 10623 10623 10622 10621 10621 10621 10621
10495 10498 10499 10501 10504 10508 10512 10514 10516 10520 10526 10533 10536 10539 10542 10544 10548 10553 10555 10558 10559 10561 10563 10566 10568 10569 10571 10571 10572 10573 10574 10575 10578 10581 10584 10587 10589 10591 10594 10596 10598 10598 10598 10598 10597 10596 10595 10595 10596 10598 10599 10601 10602 10603 10603 10604 10605 10605 10604 10603 10603 10604 10605 10606 10608 10609 10611 10613 10615 10616 10618 10619 10620 10621 10621 10621 10621 10620 10619 10619 10619 10618 10618 10618 10618 10617
10495 10498 10501 10502 10504 10507 10511 10514 10516 10520 10526 10533 10538 10539 10539 10541 10545 10550 10554 10556 10557 10558 10559 10561 10562 10563 10564 10565 10566 10567 10568 10571 10574 10578 10581 10585 10588 10589 10590 10591 10593 10593 10593 10593 10592 10591 10591 10592 10593 10594 10596 10596 10598 10598 10599 10601 10601 10601 10600 10600 10600 10601 10602 10603 10604 10606 10608 10610 10612 10613 10614 10616 10616 10617 10617 10617 10617 10616 10616 10616 10615 10615 10614 10614 10614 10613
10494 10497 10500 10503 10505 10508 10510 10513 10516 10519 10523 10528 10531 10533 10534 10536 10538 10542 10547 10551 10552 10553 10553 10554 10556 10557 10559 10559 10561 10563 10564 10568 10571 10575 10578 10582 10584 10585 10586 10587 10588 10589 10589 10589 10588 10588 10589 10589 10590 10591 10591 10592 10593 10594 10596 10597 10597 10597 10597 10597 10598 10599 10599 10601 10602 10603 10605 10607 10609 10610 10611 10612 10613 10613 10613 10613 10613 10613 10612 10612 10611 10611 10611 10611 10611 10610
10494 10496 10499 10501 10504 10507 10510 10513 10515 10518 10520 10523 10526 10528 10529 10531 10533 10534 10538 10541 10544 10545 10546 10548 10549 10551 10553 10555 10556 10558 10561 10564 10568 10572 10576 10578 10580 10582 10583 10584 10584 10586 10586 10586 10586 10586 10586 10586 10586 10586 10587 10588 10589 10591 10592 10593 10593 10594 10594 10595 10596 10596 10597 10598 10599 10601 10603 10604 10606 10607 10608 10608 10609 10609 10609 10609 10609 10609 10609 10608 10608 10608 10608 10607 10607 10606
10493 10495 10498 10500 10503 10506 10509 10511 10514 10516 10518 10520 10523 10525 10527 10528 10529 10531 10532 10533 10536 10538 10541 10543 10545 10548 10549 10551 10552 10554 10557 10561 10564 10567 10571 10573 10576 10578 10580 10580 10581 10582 10583 10583 10582 10581 10581 10581 10581 10581 10582 10584 10586 10587 10588 10589 10590 10591 10592 10593 10593 10594 10594 10595 10596 10598 10599 10601 10603 10604 10604 10605 10605 10606 10606 10606 10606 10605 10605 10604 10604 10604 10604 10603 10603 10603
10493 10494 10496 10499 10501 10504 10507 10509 10512 10514 10515 10516 10518 10521 10523 10524 10526 10527 10528 10529 10531 10534 10537 10540 10543 10544 10546 10548 10549 10551 10554 10557 10560 10563 10566 10568 10571 10573 10574 10575 10576 10577 10578 10578 10577 10576 10576 10576 10576 10576 10578 10581 10583 10584 10586 10587 10588 10589 10590 10591 10591 10591 10591 10592 10593 10595 10596 10598 10599 10600 10601 10601 10601 10602 10602 10602 10602 10602 10601 10601 10601 10601 10600 10599 10599 10599
10492 10493 10495 10498 10500 10503 10505 10508 10509 10511 10513 10514 10515 10516 10518 10520 10523 10524 10525 10527 10529 10531 10533 10537 10540 10542 10544 10546 10548 10549 10552 10554 10557 10559 10562 10564 10566 10567 10568 10569 10570 10571 10571 10571 10571 10571 10571 10571 10572 10573 10576 10578 10580 10582 10584 10585 10586 10587 10588 10588 10588 10588 10588 10589 10590 10591 10593 10594 10596 10597 10598 10598 10598 10598 10598 10598 10598 10598 10598 10598 10598 10597 10597 10596 10596 10596
10491 10493 10494 10496 10498 10500 10503 10505 10507 10509 10510 10512 10513 10514 10516 10517 10519 10521 10522 10524 10526 10529 10531 10534 10537 10539 10541 10543 10545 10548 10549 10551 10554 10556 10558 10559 10561 10563 10564 10564 10564 10564 10564 10564 10565 10565 10566 10567 10569 10571 10574 10576 10578 10579 10581 10583 10583 10584 10584 10585 10584 10585 10585 10586 10586 10588 10589 10591 10593 10594 10594 10594 10595 10595 10595 10594 10594 10594 10594 10594 10594 10594 10593 10593 10593 10593
10489 10491 10493 10494 10496 10498 10500 10503 10504 10506 10509 10510 10511 10512 10513 10514 10515 10517 10519 10521 10523 10526 10529 10531 10533 10536 10538 10540 10543 10544 10547 10549 10550 10551 10553 10554 10556 10558 10559 10559 10559 10559 10559 10559 10559 10559 10561 10563 10566 10568 10571 10574 10576 10577 10578 10579 10581 10581 10581 10581 10581 10581 10581 10582 10583 10584 10586 10588 10589 10591 10591 10591 10591 10591 10591 10591 10591 10591 10591 10591 10590 10590 10590 10589 10589 10589
10488 10489 10491 10493 10494 10496 10498 10500 10502 10504 10506 10508 10509 10510 10511 10511 10512 10514 10516 10518 10520 10523 10525 10527 10529 10532 10536 10538 10540 10543 10544 10546 10546 10548 10549 10551 10553 10554 10556 10556 10554 10553 10554 10554 10554 10556 10558 10561 10564 10567 10570 10572 10573 10574 10576 10576 10577 10577 10578 10578 10578 10578 10578 10578 10579 10581 10583 10584 10586 10587 10588 10588 10588 10588 10588 10588 10588 10587 10587 10587 10587 10587 10586 10586 10586 10586
10487 10488 10489 10491 10493 10494 10496 10498 10499 10501 10503 10505 10507 10508 10509 10510 10511 10512 10513 10515 10517 10519 10521 10523 10525 10528 10531 10534 10536 10539 10541 10543 10543 10544 10546 10547 10548 10549 10551 10551 10550 10549 10550 10551 10553 10554 10558 10561 10564 10566 10568 10569 10571 10571 10572 10572 10573 10573 10573 10574 10574 10574 10574 10575 10577 10578 10580 10581 10583 10584 10584 10584 10584 10584 10584 10584 10584 10584 10583 10583 10583 10583 10583 10583 10583 10583
10485 10486 10488 10489 10490 10492 10494 10496 10497 10499 10501 10503 10504 10506 10508 10508 10509 10511 10511 10513 10514 10516 10518 10519 10522 10524 10527 10529 10531 10534 10538 10539 10540 10542 10543 10544 10544 10544 10545 10546 10546 10547 10548 10550 10553 10555 10558 10561 10563 10564 10566 10566 10567 10567 10568 10568 10569 10569 10569 10570 10570 10571 10571 10573 10574 10576 10577 10578 10579 10579 10580 10580 10580 10580 10580 10580 10580 10579 10579 10579 10579 10580 10580 10580 10580 10579
10483 10484 10486 10486 10488 10489 10491 10493 10494 10496 10498 10499 10501 10504 10505 10506 10507 10508 10509 10510 10511 10513 10514 10516 10518 10520 10523 10525 10528 10530 10533 10534 10536 10537 10539 10539 10540 10541 10543 10544 10546 10547 10548 10550 10552 10554 10558 10559 10560 10561 10562 10562 10562 10563 10563 10564 10564 10565 10566 10566 10567 10568 10569 10570 10571 10573 10574 10575 10576 10576 10576 10576 10576 10576 10576 10576 10576 10576 10576 10576 10576 10576 10577 10577 10577 10576
10480 10481 10483 10484 10486 10487 10488 10489 10491 10493 10495 10497 10499 10501 10502 10503 10504 10506 10506 10508 10509 10510 10512 10513 10514 10516 10519 10521 10524 10526 10528 10531 10532 10533 10534 10536 10538 10539 10541 10543 10545 10546 10548 10549 10551 10553 10554 10556 10557 10558 10558 10558 10558 10558 10558 10559 10561 10562 10563 10563 10564 10565 10566 10567 10568 10569 10571 10571 10572 10572 10572 10572 10572 10572 10572 10572 10572 10572 10572 10573 10573 10573 10574 10574 10573 10573
10478 10479 10480 10482 10483 10484 10486 10487 10488 10490 10492 10494 10496 10498 10499 10500 10501 10503 10504 10506 10507 10508 10509 10511 10511 10513 10515 10518 10519 10522 10524 10527 10528 10528 10531 10534 10536 10538 10539 10541 10543 10543 10544 10545 10547 10549 10551 10552 10553 10553 10552 10552 10552 10553 10554 10556 10557 10558 10559 10560 10561 10562 10563 10564 10565 10566 10567 10568 10568 10568 10568 10568 10568 10568 10568 10568 10568 10568 10569 10569 10570 10570 10571 10570 10570 10569
10475 10476 10478 10479 10480 10481 10483 10484 10486 10487 10489 10490 10491 10493 10495 10497 10498 10499 10501 10502 10504 10505 10506 10508 10509 10511 10513 10515 10516 10518 10521 10523 10524 10526 10528 10531 10532 10533 10535 10537 10538 10538 10539 10541 10543 10544 10546 10547 10547 10546 10546 10546 10547 10549 10551 10553 10554 10555 10556 10557 10558 10559 10560 10561 10562 10563 10563 10564 10564 10564 10564 10564 10564 10564 10564 10564 10564 10565 10566 10566 10567 10567 10567 10566 10566 10565
10473 10473 10474 10476 10477 10479 10480 10481 10483 10484 10485 10486 10488 10489 10491 10494 10495 10496 10498 10499 10501 10502 10504 10506 10508 10510 10511 10512 10514 10516 10517 10519 10521 10523 10525 10526 10526 10528 10529 10531 10533 10534 10534 10536 10538 10540 10541 10541 10540 10540 10541 10542 10544 10546 10548 10550 10551 10552 10553 10554 10555 10556 10557 10558 10559 10559 10560 10561 10561 10561 10561 10561 10561 10561 10561 10561 10561 10561 10562 10563 10563 10563 10563 10563 10562 10561
10470 10471 10471 10473 10474 10475 10476 10478 10479 10481 10482 10483 10484 10486 10488 10489 10491 10493 10495 10496 10498 10499 10501 10503 10505 10506 10507 10508 10510 10512 10514 10516 10518 10520 10521 10521 10521 10523 10524 10526 10528 10529 10530 10531 10532 10534 10534 10534 10534 10536 10537 10539 10542 10544 10546 10548 10548 10549 10549 10551 10551 10553 10554 10555 10556 10557 10558 10558 10558 10558 10558 10558 10558 10558 10557 10557 10558 10558 10559 10559 10559 10559 10559 10559 10558 10558
10467 10468 10469 10469 10471 10472 10473 10474 10476 10478 10479 10480 10481 10483 10484 10485 10487 10489 10491 10493 10494 10495 10497 10499 10500 10501 10502 10504 10506 10508 10510 10513 10515 10516 10517 10517 10518 10519 10520 10523 10524 10526 10525 10526 10527 10529 10530 10530 10531 10533 10536 10538 10540 10542 10543 10544 10545 10546 10546 10547 10548 10549 10551 10552 10553 10554 10554 10555 10555 10555 10555 10554 10554 10554 10554 10554 10554 10555 10556 10556 10556 10556 10556 10555 10555 10554
10464 10464 10466 10466 10467 10468 10469 10470 10472 10473 10474 10476 10478 10479 10480 10481 10482 10484 10485 10486 10488 10490 10492 10494 10495 10496 10499 10501 10503 10504 10506 10509 10511 10511 10512 10513 10514 10515 10516 10519 10521 10522 10522 10523 10523 10525 10526 10528 10529 10531 10533 10535 10537 10539 10540 10541 10541 10542 10543 10543 10544 10546 10547 10548 10549 10551 10551 10551 10551 10551 10551 10551 10551 10551 10551 10552 10552 10553 10553 10553 10553 10553 10553 10552 10552 10551
10461 10461 10462 10463 10463 10464 10465 10466 10468 10469 10470 10472 10473 10474 10476 10477 10478 10478 10479 10481 10483 10485 10487 10488 10490 10492 10494 10496 10497 10499 10501 10504 10506 10506 10508 10509 10511 10511 10513 10514 10517 10519 10519 10519 10521 10522 10523 10524 10526 10528 10530 10531 10533 10535 10536 10537 10538 10538 10539 10540 10541 10542 10543 10544 10546 10546 10547 10548 10548 10548 10548 10548 10548 10548 10548 10549 10549 10549 10549 10549 10549 10549 10549 10549 10548 10548
10457 10458 10459 10459 10460 10461 10461 10462 10463 10464 10466 10467 10469 10470 10471 10473 10473 10474 10474 10477 10479 10481 10481 10483 10484 10487 10489 10490 10492 10494 10497 10499 10501 10501 10503 10506 10506 10506 10508 10511 10513 10514 10515 10516 10518 10519 10521 10521 10523 10524 10526 10528 10529 10531 10532 10533 10534 10535 10536 10536 10538 10539 10539 10541 10541 10542 10543 10543 10544 10544 10544 10544 10544 10545 10545 10546 10546 10546 10546 10546 10546 10546 10546 10546 10545 10544
10453 10454 10455 10456 10456 10457 10458 10458 10459 10460 10461 10463 10464 10465 10466 10468 10468 10469 10471 10473 10474 10475 10476 10477 10479 10481 10483 10485 10488 10490 10492 10493 10494 10497 10500 10501 10501 10501 10504 10507 10509 10509 10511 10513 10514 10516 10516 10517 10519 10521 10522 10523 10525 10526 10528 10529 10530 10531 10532 10533 10534 10535 10536 10536 10537 10538 10539 10539 10540 10540 10541 10541 10541 10541 10542 10543 10543 10543 10543 10543 10543 10543 10542 10542 10541 10541
10448 10449 10451 10451 10453 10453 10454 10454 10455 10456 10457 10458 10459 10460 10461 10463 10464 10465 10467 10468 10469 10470 10471 10472 10474 10476 10478 10480 10483 10484 10484 10487 10490 10494 10497 10497 10497 10498 10500 10503 10503 10504 10506 10509 10511 10511 10512 10513 10514 10516 10518 10519 10521 10523 10524 10525 10526 10528 10528 10529 10530 10531 10532 10533 10533 10534 10535 10536 10536 10536 10537 10537 10538 10538 10539 10539 10539 10539 10539 10539 10539 10539 10539 10539 10538 10538
10443 10444 10445 10447 10448 10449 10449 10450 10451 10451 10453 10453 10454 10455 10456 10458 10459 10460 10461 10463 10464 10465 10466 10468 10469 10471 10473 10474 10476 10478 10479 10482 10486 10490 10493 10493 10492 10493 10495 10497 10498 10499 10501 10504 10506 10506 10508 10508 10509 10511 10514 10516 10517 10518 10520 10522 10523 10524 10525 10526 10526 10527 10528 10529 10529 10530 10531 10532 10533 10533 10533 10534 10534 10535 10535 10536 10536 10536 10536 10536 10536 10536 10536 10535 10534 10534
10438 10438 10440 10441 10443 10444 10445 10446 10447 10448 10448 10449 10449 10451 10451 10453 10454 10455 10456 10458 10459 10460 10461 10463 10464 10466 10467 10469 10471 10473 10474 10477 10480 10483 10486 10486 10486 10487 10489 10491 10492 10494 10496 10499 10500 10501 10503 10503 10504 10506 10509 10511 10513 10515 10517 10518 10520 10521 10522 10523 10523 10523 10524 10525 10526 10526 10527 10528 10529 10529 10530 10531 10531 10532 10532 10533 10533 10533 10533 10533 10532 10532 10532 10531 10531 10530
10432 10433 10434 10436 10437 10439 10440 10441 10442 10443 10444 10444 10445 10446 10447 10448 10449 10450 10451 10452 10453 10455 10456 10458 10459 10460 10462 10464 10466 10468 10469 10471 10474 10476 10479 10480 10481 10481 10483 10484 10486 10488 10491 10493 10494 10496 10498 10499 10500 10503 10505 10507 10509 10511 10514 10515 10516 10518 10518 10519 10519 10519 10520 10521 10522 10523 10523 10524 10525 10526 10526 10527 10528 10529 10529 10529 10529 10529 10529 10529 10529 10529 10528 10528 10528 10526
10427 10428 10428 10429 10431 10433 10434 10436 10437 10438 10439 10439 10441 10441 10442 10443 10444 10445 10446 10447 10448 10449 10451 10452 10453 10455 10457 10458 10460 10462 10464 10466 10469 10472 10474 10475 10476 10476 10478 10479 10481 10483 10486 10488 10489 10491 10493 10494 10496 10498 10501 10503 10505 10508 10509 10511 10513 10514 10515 10516 10516 10516 10516 10517 10518 10519 10519 10521 10522 10523 10523 10524 10525 10525 10526 10526 10526 10526 10526 10526 10526 10525 10524 10524 10524 10523
10421 10422 10423 10424 10425 10426 10428 10430 10431 10433 10434 10435 10436 10436 10437 10438 10439 10440 10441 10442 10443 10444 10446 10447 10448 10450 10451 10453 10455 10456 10458 10461 10464 10468 10469 10470 10471 10472 10473 10474 10476 10479 10482 10484 10485 10487 10489 10491 10493 10494 10497 10499 10501 10503 10505 10507 10509 10511 10511 10512 10513 10513 10513 10514 10514 10515 10516 10517 10518 10519 10520 10521 10521 10522 10522 10523 10523 10523 10522 10522 10522 10521 10521 10520 10520 10519
10415 10416 10417 10418 10419 10421 10422 10424 10425 10427 10428 10429 10431 10432 10433 10433 10434 10435 10436 10438 10438 10439 10441 10442 10443 10444 10446 10448 10450 10452 10454 10457 10460 10463 10464 10465 10466 10468 10468 10469 10471 10475 10478 10480 10481 10483 10485 10487 10489 10491 10494 10496 10498 10499 10501 10503 10505 10507 10508 10508 10508 10509 10509 10510 10511 10512 10513 10514 10514 10515 10516 10517 10518 10518 10518 10519 10519 10519 10518 10518 10518 10518 10517 10516 10516 10516
10409 10410 10411 10413 10413 10414 10416 10418 10419 10421 10423 10424 10426 10427 10428 10429 10429 10430 10431 10433 10434 10435 10436 10437 10438 10439 10441 10443 10444 10447 10449 10452 10455 10457 10459 10460 10461 10463 10463 10464 10467 10471 10474 10476 10477 10479 10481 10483 10486 10488 10490 10491 10493 10495 10497 10499 10501 10503 10503 10503 10504 10505 10506 10506 10508 10509 10510 10511 10511 10512 10513 10513 10514 10514 10514 10515 10515 10515 10514 10514 10513 10513 10513 10513 10513 10513
10403 10404 10405 10406 10408 10409 10410 10411 10413 10414 10416 10418 10419 10421 10423 10424 10425 10426 10427 10428 10429 10430 10431 10433 10434 10435 10436 10438 10439 10441 10444 10446 10449 10451 10453 10455 10456 10458 10459 10460 10463 10466 10468 10471 10473 10475 10477 10479 10481 10483 10485 10487 10489 10491 10493 10494 10496 10498 10498 10499 10500 10501 10501 10503 10504 10505 10506 10507 10508 10508 10509 10509 10510 10511 10511 10511 10511 10511 10510 10509 10509 10509 10509 10509 10509 10509
10397 10398 10399 10401 10402 10403 10404 10405 10406 10408 10410 10412 10414 10416 10418 10419 10420 10421 10422 10423 10424 10425 10426 10428 10429 10430 10432 10433 10434 10436 10438 10441 10443 10445 10448 10449 10451 10453 10454 10456 10458 10461 10464 10466 10468 10470 10472 10474 10476 10478 10481 10483 10484 10486 10488 10490 10492 10493 10494 10495 10496 10496 10497 10499 10501 10502 10503 10503 10504 10504 10505 10505 10506 10507 10507 10507 10506 10506 10505 10504 10504 10504 10505 10506 10506 10505
10391 10391 10393 10394 10396 10397 10398 10399 10401 10402 10404 10406 10408 10409 10411 10413 10415 10416 10418 10418 10419 10421 10422 10423 10424 10425 10427 10428 10429 10431 10433 10435 10437 10439 10442 10444 10446 10448 10449 10451 10454 10457 10459 10461 10463 10465 10468 10469 10471 10474 10476 10478 10480 10482 10484 10486 10488 10489 10490 10491 10491 10491 10493 10495 10497 10498 10499 10499 10500 10501 10501 10502 10502 10503 10503 10502 10501 10501 10501 10501 10501 10501 10501 10502 10502 10502
10384 10385 10386 10388 10389 10391 10392 10393 10394 10396 10398 10399 10401 10403 10405 10407 10409 10411 10413 10414 10414 10416 10417 10418 10419 10420 10421 10423 10424 10426 10428 10430 10432 10434 10436 10438 10440 10442 10444 10447 10449 10453 10455 10457 10459 10461 10463 10465 10468 10470 10472 10474 10476 10478 10480 10481 10483 10484 10486 10487 10488 10488 10490 10492 10493 10494 10495 10496 10496 10497 10498 10498 10498 10498 10498 10497 10497 10496 10496 10497 10497 10498 10498 10498 10499 10499
10378 10379 10381 10382 10383 10384 10386 10388 10389 10390 10391 10393 10394 10396 10399 10401 10404 10406 10407 10409 10410 10411 10413 10414 10414 10416 10417 10418 10419 10421 10423 10424 10426 10429 10431 10433 10435 10438 10440 10443 10445 10448 10450 10452 10454 10455 10458 10461 10464 10466 10468 10471 10473 10474 10476 10477 10479 10480 10481 10483 10484 10486 10487 10488 10488 10490 10491 10492 10493 10493 10494 10494 10493 10493 10493 10493 10493 10493 10493 10493 10494 10494 10494 10495 10495 10495
10373 10373 10374 10376 10377 10378 10380 10381 10383 10384 10385 10386 10388 10390 10393 10396 10398 10400 10402 10404 10405 10407 10408 10409 10410 10411 10413 10413 10414 10416 10418 10419 10421 10424 10426 10428 10430 10433 10435 10438 10440 10442 10444 10446 10448 10450 10453 10457 10460 10463 10464 10467 10469 10471 10472 10473 10474 10476 10476 10478 10479 10481 10483 10483 10484 10486 10488 10488 10489 10489 10489 10489 10489 10489 10489 10489 10489 10489 10489 10490 10490 10491 10491 10492 10492 10492
10366 10368 10369 10370 10371 10372 10373 10374 10376 10377 10379 10380 10382 10384 10387 10389 10392 10394 10396 10398 10400 10402 10403 10405 10406 10407 10408 10409 10410 10411 10413 10415 10416 10418 10421 10423 10425 10428 10431 10433 10434 10436 10438 10441 10443 10446 10450 10453 10456 10458 10461 10463 10465 10466 10468 10468 10469 10471 10472 10473 10475 10477 10478 10479 10481 10483 10483 10484 10484 10484 10484 10484 10484 10485 10485 10485 10486 10486 10486 10487 10487 10488 10488 10488 10489 10488
10360 10361 10363 10364 10365 10366 10366 10368 10369 10371 10372 10374 10376 10378 10381 10383 10386 10388 10391 10393 10395 10397 10399 10400 10401 10402 10403 10404 10406 10408 10409 10410 10412 10413 10416 10418 10420 10423 10426 10428 10429 10431 10433 10436 10439 10443 10446 10449 10452 10454 10456 10458 10459 10461 10462 10463 10464 10466 10467 10469 10471 10473 10474 10476 10477 10478 10478 10479 10479 10479 10479 10480 10481 10481 10481 10481 10482 10483 10483 10483 10484 10484 10485 10485 10485 10485
10354 10355 10356 10358 10359 10359 10360 10361 10363 10364 10366 10368 10369 10372 10374 10378 10380 10383 10384 10387 10389 10391 10394 10396 10397 10398 10399 10400 10402 10403 10404 10406 10407 10409 10411 10413 10416 10418 10421 10423 10424 10426 10429 10432 10436 10439 10443 10445 10447 10449 10451 10452 10454 10455 10456 10458 10460 10461 10463 10464 10466 10468 10469 10471 10472 10473 10474 10474 10474 10475 10475 10476 10477 10477 10478 10478 10478 10479 10479 10480 10481 10481 10482 10482 10482 10482
10348 10349 10350 10351 10352 10353 10354 10355 10356 10358 10359 10361 10364 10366 10369 10371 10374 10376 10379 10381 10384 10386 10388 10390 10392 10393 10394 10396 10398 10399 10400 10401 10403 10404 10407 10409 10411 10414 10416 10418 10420 10423 10426 10429 10432 10435 10438 10440 10442 10443 10445 10446 10448 10449 10451 10453 10455 10457 10458 10460 10462 10464 10464 10466 10466 10468 10469 10469 10470 10471 10471 10472 10473 10473 10474 10474 10475 10476 10476 10477 10478 10478 10479 10479 10479 10479
10341 10342 10343 10344 10345 10346 10347 10348 10349 10351 10353 10355 10358 10360 10363 10366 10368 10371 10373 10376 10379 10381 10383 10384 10386 10388 10390 10392 10393 10394 10396 10397 10399 10401 10403 10405 10407 10409 10412 10414 10416 10419 10422 10425 10428 10431 10433 10434 10436 10438 10439 10442 10443 10445 10446 10448 10450 10453 10454 10456 10458 10459 10460 10461 10462 10463 10464 10465 10466 10466 10467 10468 10469 10469 10471 10471 10472 10473 10473 10474 10474 10475 10475 10476 10476 10476
10334 10336 10336 10337 10338 10339 10340 10341 10343 10344 10347 10349 10352 10354 10357 10360 10363 10366 10368 10371 10373 10375 10378 10379 10382 10384 10386 10388 10389 10391 10392 10393 10395 10396 10399 10401 10403 10406 10408 10410 10413 10416 10419 10421 10423 10425 10428 10429 10431 10433 10435 10437 10439 10441 10442 10444 10446 10448 10451 10452 10453 10454 10455 10456 10457 10458 10459 10461 10461 10462 10463 10464 10465 10466 10468 10468 10469 10469 10470 10471 10471 10471 10472 10473 10473 10473
10328 10328 10329 10330 10331 10332 10333 10334 10336 10338 10341 10343 10346 10349 10351 10354 10357 10360 10363 10365 10368 10370 10372 10374 10377 10379 10381 10383 10385 10386 10388 10389 10391 10393 10394 10396 10399 10401 10404 10406 10409 10412 10414 10417 10418 10420 10423 10424 10426 10428 10429 10432 10434 10436 10438 10439 10442 10444 10446 10448 10449 10450 10451 10452 10453 10454 10456 10456 10458 10459 10460 10461 10462 10463 10464 10465 10466 10466 10466 10467 10468 10468 10468 10469 10469 10469